Flag for Germany Weather past 2 weeks in Schweinfurt, Bavaria, Germany

Now
47 °F

Overcast.


Feels Like: 45 °F
Forecast: 31 / 58 °F
Wind: 5 mph from Northwest

Location: Wuerzburg

Current Time: Apr 28, 2015 at 12:51:01 PM

Latest Report: Apr 28, 2015 at 12:00 PM


Visibility: 13 mi

Pressure: 29.98 "Hg

Humidity: 76%

Dew point: 40 °F

Location of SchweinfurtLocation

Historic Weather in Schweinfurt — Graph

°F

Schweinfurt temperature yesterday

Maximum temperature yesterday: 65 °F (at 5:00 PM)
Minimum temperature yesterday: 50 °F (at 11:00 PM)
Average temperature yesterday: 58 °F

Past Weeks' High & Low Weather Summary

 TemperatureHumidityPressure
High76 °F (Apr 15, 4:00 PM)93% (Apr 26, 5:00 AM)30.49 "Hg (Apr 26, 5:00 AM)
Low32 °F (Apr 19, 6:00 AM)20% (Apr 15, 7:00 PM)29.57 "Hg (Apr 27, 6:00 PM)
Average54 °F57%30.09 "Hg
* Reported Apr 13 12:00 Noon — Apr 28 12:00 Noon, Schweinfurt, Weather by CustomWeather, © 2015

Note: Actual official high and low records may vary slightly from our data, if they occured in-between our weather recording intervals... More about our weather records

Advertising

Schweinfurt weather history for previous 24 hours

 ConditionsComfort  
Time TempWeatherWind HumidityBarometerVisibility
12:00 PM
Tue, Apr 28
47 °FOvercast.5 mph76%29.98 "Hg12 mi
11:00 AM45 °FLow clouds.3 mph84%29.97 "Hg9 mi
10:00 AM43 °FLight rain. Overcast.5 mph87%29.94 "Hg9 mi
9:00 AM43 °FLight rain. Overcast.3 mph90%29.91 "Hg4 mi
8:00 AM43 °FLight rain. Overcast.2 mph85%29.87 "Hg19 mi
7:00 AM43 °FLight rain. Overcast.3 mph89%29.82 "Hg11 mi
6:00 AM44 °FDrizzle. Low clouds.3 mph93%29.80 "Hg5 mi
5:00 AM44 °FDrizzle. Low clouds.3 mph91%29.77 "Hg8 mi
4:00 AM45 °FRain. Overcast.5 mph91%29.75 "Hg10 mi
3:00 AM46 °FRain. Overcast.5 mph90%29.74 "Hg11 mi
2:00 AM47 °FLight rain. Overcast.5 mph88%29.72 "Hg10 mi
1:00 AM48 °FLight rain. Overcast.5 mph84%29.71 "Hg17 mi
12:00 AM50 °FLight rain. Overcast.6 mph77%29.69 "Hg28 mi
11:00 PM
Mon, Apr 27
50 °FOvercast.5 mph77%29.68 "Hg28 mi
10:00 PM52 °FOvercast.6 mph78%29.67 "Hg28 mi
9:00 PM54 °FOvercast.2 mph77%29.64 "Hg28 mi
8:00 PM56 °FOvercast.5 mph76%29.62 "Hg28 mi
7:00 PM59 °FOvercast.5 mph72%29.59 "Hg28 mi
6:00 PM65 °FPartly sunny.3 mph64%29.57 "Hg28 mi
5:00 PM65 °FOvercast.2 mph64%29.58 "Hg34 mi
4:00 PM63 °FOvercast.3 mph66%29.59 "Hg34 mi
3:00 PM64 °FOvercast.2 mph62%29.59 "Hg40 mi
2:00 PM64 °FOvercast.2 mph63%29.60 "Hg40 mi
1:00 PM64 °FOvercast.2 mph63%29.61 "Hg34 mi
12:00 PM62 °FOvercast.5 mph68%29.62 "Hg34 mi
Weather by CustomWeather, © 2015

See weather overviewHow to use our weather pages